Hibbing, MN

7:23 AM CST on November 23, 2017 (GMT -0600)
Chisholm-hibbing

Weather History for KHIB - February, 2013

Change the Weather History Date:

Thursday, February 7, 2013

  Actual Average Record
Temperature  
Mean Temperature 16 °F -  
Max Temperature 24 °F 20 °F 47 °F (1987)
Min Temperature 9 °F -5 °F -27 °F (1967)
Degree Days  
Heating Degree Days 48    
Moisture  
Dew Point 11 °F    
Average Humidity 75    
Maximum Humidity 84    
Minimum Humidity 62    
Precipitation  
Precipitation 0.00 in - - ()
Sea Level Pressure  
Sea Level Pressure 30.24 in    
Wind  
Wind Speed 4 mph (NE)    
Max Wind Speed 8 mph    
Max Gust Speed -    
Visibility 9 miles    
Events Snow    
Averages and records for this station are not official NWS values.
T = Trace of Precipitation, MM = Missing Value Source: NWS Daily Summary

Daily Weather History Graph

Daily Weather History Graph

Search for Another Location

Airport or City:

Trip Planner

Search our weather history database for the weather conditions in past years. The results will help you decide how hot, cold, wet, or windy it might be!

Date:

Astronomy

Feb. 07, 2013 Rise Set
Actual Time 7:28 AM CST 5:23 PM CST
Civil Twilight 6:56 AM CST 5:55 PM CST
Nautical Twilight 6:20 AM CST 6:31 PM CST
Astronomical Twilight 5:44 AM CST 7:07 PM CST
Moon 5:15 AM CST (2/7) 2:42 PM CST (2/7)
Length of Visible Light 10h 58m
Length of Day
9h 54m
Waning Crescent, 9% of the Moon is Illuminated
Feb 7
Waning Crescent
Feb 10
New
Feb 17
First Quarter
Feb 25
Full
Mar 4
Last Quarter

Hourly Weather History & Observations

Time (CST) Temp. Windchill Dew Point Humidity Pressure Visibility Wind Dir Wind Speed Gust Speed Precip Events Conditions
12:14 AM 19.4 °F 12.8 °F 12.2 °F 74% 30.07 in 10.0 mi ENE 4.6 mph - N/A   Overcast
12:53 AM 19.0 °F 12.3 °F 12.9 °F 77% 30.17 in 10.0 mi NE 4.6 mph - N/A   Overcast
1:53 AM 19.0 °F 13.9 °F 12.9 °F 77% 30.17 in 10.0 mi NE 3.5 mph - N/A   Overcast
2:41 AM 19.4 °F 11.5 °F 12.2 °F 74% 30.09 in 10.0 mi NE 5.8 mph - N/A   Overcast
2:53 AM 19.0 °F 12.3 °F 12.9 °F 77% 30.17 in 10.0 mi NE 4.6 mph - N/A   Overcast
3:53 AM 18.0 °F 9.8 °F 12.9 °F 81% 30.18 in 10.0 mi NNE 5.8 mph - N/A   Overcast
4:53 AM 18.0 °F 9.8 °F 12.9 °F 81% 30.19 in 10.0 mi NE 5.8 mph - N/A   Overcast
5:53 AM 17.1 °F 7.6 °F 12.9 °F 84% 30.21 in 10.0 mi NE 6.9 mph - N/A   Overcast
6:41 AM 17.6 °F 9.3 °F 12.2 °F 79% 30.13 in 10.0 mi NNE 5.8 mph - N/A   Overcast
6:53 AM 17.1 °F 8.7 °F 12.0 °F 81% 30.22 in 10.0 mi NE 5.8 mph - N/A   Overcast
7:53 AM 18.0 °F - 12.0 °F 78% 30.26 in 10.0 mi Calm Calm - N/A   Overcast
8:26 AM 17.6 °F 9.3 °F 12.2 °F 79% 30.17 in 5.0 mi NE 5.8 mph - 0.00 in Snow Light Snow
8:53 AM 18.0 °F 9.8 °F 12.0 °F 78% 30.26 in 3.0 mi NNE 5.8 mph - 0.00 in Snow Light Snow
9:00 AM 17.6 °F 10.7 °F 12.2 °F 79% 30.17 in 2.5 mi NE 4.6 mph - 0.00 in Snow Light Snow
9:16 AM 17.6 °F 8.2 °F 12.2 °F 79% 30.17 in 4.0 mi NE 6.9 mph - 0.00 in Snow Light Snow
9:53 AM 18.0 °F 8.7 °F 12.0 °F 78% 30.27 in 4.0 mi North 6.9 mph - 0.00 in Snow Light Snow
10:53 AM 19.9 °F 14.9 °F 12.0 °F 71% 30.28 in 10.0 mi NE 3.5 mph - 0.00 in   Overcast
11:53 AM 23.0 °F 17.0 °F 12.0 °F 63% 30.28 in 10.0 mi NNE 4.6 mph - N/A   Overcast
12:53 PM 24.1 °F 15.2 °F 12.9 °F 62% 30.27 in 10.0 mi NNE 8.1 mph - N/A   Overcast
1:53 PM 24.1 °F 17.0 °F 12.9 °F 62% 30.25 in 10.0 mi NE 5.8 mph - N/A   Overcast
2:53 PM 24.1 °F 18.2 °F 12.9 °F 62% 30.25 in 10.0 mi NNE 4.6 mph - N/A   Overcast
3:53 PM 24.1 °F 17.0 °F 12.9 °F 62% 30.27 in 10.0 mi Variable 5.8 mph - N/A   Overcast
4:53 PM 23.0 °F 15.8 °F 12.9 °F 65% 30.27 in 10.0 mi North 5.8 mph - N/A   Overcast
5:53 PM 21.9 °F 15.7 °F 12.9 °F 68% 30.30 in 10.0 mi North 4.6 mph - N/A   Overcast
6:53 PM 19.9 °F 13.4 °F 12.0 °F 71% 30.30 in 10.0 mi North 4.6 mph - N/A   Overcast
7:21 PM 14.0 °F - 8.6 °F 79% 30.22 in 10.0 mi Calm Calm - N/A   Partly Cloudy
7:35 PM 15.8 °F - 10.4 °F 79% 30.23 in 10.0 mi Calm Calm - N/A   Mostly Cloudy
7:53 PM 12.0 °F - 7.0 °F 80% 30.32 in 10.0 mi Calm Calm - N/A   Overcast
8:53 PM 9.0 °F - 3.9 °F 80% 30.34 in 10.0 mi Calm Calm - N/A   Overcast
9:53 PM 12.0 °F - 8.1 °F 84% 30.35 in 9.0 mi Calm Calm - N/A   Overcast
10:53 PM 14.0 °F - 9.0 °F 80% 30.35 in 10.0 mi Calm Calm - N/A   Overcast
11:53 PM 14.0 °F - 8.1 °F 77% 30.35 in 10.0 mi Calm Calm - N/A   Overcast